ASIASAT 8

Last updated on Mon Jan 25 2021 10:36:16 GMT+0000 (Coordinated Universal Time)

1 40107U 14046A 21024.90132910 -.00000021 00000-0 00000-0 0 9995 2 40107 0.0160 109.9763 0002152 191.2691 143.7618 1.00271593 82407
UTC large
Height (km)
Speed (km/s)
/
Latitude / Longitude
Inclination (degrees)
Orbital Period (minutes)
Azimuth
Elevation
Range (km)
Doppler Factor

Next 0 passes for location: London (51.5072 / 0.1276)

Sorry there are no passes over London.